EW5678 Weather Reports


Display with metric or nautical units.
time (UTC)temp
F
wind
direction
speed
MPH
gust
MPH
rain 1hr
in
rain 24hr
in
rain mn
in
humidity
%
barometer
mb
20260505124151 60 181 5.0 11.0 0.00 0.00 0.00 79 1000.8
20260505123251 60 199 6.0 11.0 0.00 0.00 0.00 80 1001.0
20260505122351 59 219 7.0 14.0 0.00 0.00 0.00 81 1000.9
20260505121451 59 217 8.0 17.0 0.00 0.00 0.00 81 1001.0
20260505120551 58 222 11.0 19.0 0.00 0.00 0.00 80 1000.9
20260505115651 58 223 11.0 21.0 0.00 0.00 0.00 83 1000.9
20260505113851 56 215 9.0 18.0 0.00 0.00 0.00 87 1001.1
20260505112951 56 215 8.0 15.0 0.00 0.00 0.00 88 1001.0
20260505112051 55 214 7.0 16.0 0.00 0.00 0.00 89 1001.0
20260505111150 54 210 8.0 14.0 0.00 0.00 0.00 90 1000.8
20260505110251 54 212 7.0 15.0 0.00 0.00 0.00 91 1000.9
20260505101750 53 194 6.0 15.0 0.00 0.00 0.00 91 1000.0
20260505100850 54 207 7.0 16.0 0.00 0.00 0.00 91 999.8
20260505095050 54 207 9.0 20.0 0.00 0.00 0.00 91 999.8
20260505094150 53 201 8.0 17.0 0.00 0.00 0.00 91 999.8
20260505093250 53 201 7.0 18.0 0.00 0.00 0.00 91 999.9
20260505092350 53 207 8.0 16.0 0.00 0.00 0.00 90 999.9
20260505091450 53 204 8.0 18.0 0.00 0.00 0.00 91 999.7
20260505090550 53 196 7.0 16.0 0.00 0.00 0.00 91 999.9
20260505085650 53 198 8.0 18.0 0.00 0.00 0.00 91 999.8
20260505084750 53 208 8.0 20.0 0.00 0.00 0.00 91 999.8
20260505083850 53 197 8.0 20.0 0.00 0.00 0.00 91 999.7
20260505082950 53 207 7.0 17.0 0.00 0.00 0.00 91 999.7
20260505082050 53 192 8.0 21.0 0.00 0.00 0.00 90 999.7
20260505080250 53 207 9.0 21.0 0.00 0.00 0.00 89 999.6
20260505075350 54 195 9.0 17.0 0.00 0.00 0.00 89 999.7
20260505074450 53 209 10.0 19.0 0.00 0.00 0.00 89 999.6
20260505073550 54 209 9.0 20.0 0.00 0.00 0.00 89 999.7
20260505072650 53 199 9.0 18.0 0.00 0.00 0.00 89 999.7
20260505071750 54 205 9.0 17.0 0.00 0.00 0.00 89 999.7
20260505070850 54 203 9.0 19.0 0.00 0.00 0.00 89 999.8
20260505065950 54 202 9.0 20.0 0.00 0.00 0.00 89 999.8
20260505065050 54 201 10.0 20.0 0.00 0.00 0.00 88 999.9
20260505064150 54 207 9.0 22.0 0.00 0.00 0.00 88 999.8
20260505063249 54 212 9.0 21.0 0.00 0.00 0.00 88 999.8
20260505062350 54 204 9.0 22.0 0.00 0.00 0.00 88 999.9
20260505061449 54 201 9.0 19.0 0.00 0.00 0.00 88 1000.0
20260505060549 54 205 10.0 19.0 0.00 0.00 0.00 88 1000.0
20260505055649 54 206 10.0 22.0 0.00 0.00 0.00 87 1000.1
20260505052949 54 191 8.0 17.0 0.00 0.00 0.00 87 1000.2
20260505052049 54 214 10.0 22.0 0.00 0.00 0.00 86 1000.3
20260505050249 55 205 10.0 19.0 0.00 0.00 0.00 84 1000.5
20260505041749 56 205 8.0 18.0 0.00 0.00 0.00 81 1000.7
20260505040849 56 213 9.0 20.0 0.00 0.00 0.00 80 1000.6
20260505035949 56 217 10.0 21.0 0.00 0.00 0.00 78 1000.7
20260505035049 56 214 12.0 21.0 0.00 0.00 0.00 78 1000.7
20260505034149 56 217 13.0 21.0 0.00 0.00 0.00 78 1000.7
20260505033249 56 217 12.0 20.0 0.00 0.00 0.00 78 1000.6
20260505032349 56 213 12.0 22.0 0.00 0.00 0.00 78 1000.6
20260505030549 56 215 13.0 23.0 0.00 0.00 0.00 78 1000.8
20260505025649 56 216 13.0 20.0 0.00 0.00 0.00 77 1000.7
20260505024749 56 216 13.0 21.0 0.00 0.00 0.00 77 1000.7
20260505023849 56 222 14.0 23.0 0.00 0.00 0.00 76 1000.7
20260505022949 56 221 16.0 23.0 0.00 0.00 0.00 76 1000.6
20260505022049 56 219 14.0 23.0 0.00 0.00 0.00 76 1000.7
20260505021149 56 219 16.0 24.0 0.00 0.00 0.00 75 1000.7
20260505020249 56 222 15.0 26.0 0.00 0.00 0.00 75 1000.7
20260505015348 56 218 15.0 24.0 0.00 0.00 0.00 75 1000.8
20260505014448 56 222 14.0 26.0 0.00 0.00 0.00 75 1000.6
20260505013548 56 219 14.0 25.0 0.00 0.00 0.00 75 1000.8
20260505011748 56 221 15.0 27.0 0.00 0.00 0.00 74 1000.5
20260505010848 56 223 13.0 23.0 0.00 0.00 0.00 72 1000.5
20260505005948 56 220 16.0 28.0 0.00 0.00 0.00 73 1000.4
20260505004148 56 218 13.0 25.0 0.00 0.00 0.00 73 1000.1
20260505003248 56 218 12.0 25.0 0.00 0.00 0.00 74 1000.0
20260505002348 55 210 11.0 20.0 0.00 0.00 0.00 76 999.8
20260505001448 55 211 10.0 20.0 0.00 0.00 0.00 77 999.8
20260504235648 55 213 9.0 18.0 0.00 0.00 0.00 76 999.5
20260504234748 56 215 10.0 22.0 0.00 0.00 0.00 75 999.5
20260504233848 56 207 11.0 25.0 0.00 0.00 0.00 73 999.4
20260504232948 57 209 11.0 24.0 0.00 0.00 0.00 72 999.3
20260504232048 57 209 12.0 29.0 0.00 0.00 0.00 70 999.2
20260504231148 57 207 12.0 24.0 0.00 0.00 0.00 70 999.0
20260504230248 58 210 13.0 28.0 0.00 0.00 0.00 69 998.9
20260504225348 58 205 12.0 25.0 0.00 0.00 0.00 68 999.0
20260504224448 58 203 13.0 24.0 0.00 0.00 0.00 67 999.0
20260504223548 58 208 13.0 28.0 0.00 0.00 0.00 65 999.2
20260504222648 59 212 14.0 32.0 0.00 0.00 0.00 65 999.2
20260504221747 59 220 15.0 30.0 0.00 0.00 0.00 64 999.0
20260504220848 59 211 13.0 27.0 0.00 0.00 0.00 64 999.2
20260504215947 60 216 11.0 25.0 0.00 0.00 0.00 63 999.3
20260504215048 60 210 13.0 27.0 0.00 0.00 0.00 63 999.4
20260504214147 60 214 13.0 25.0 0.00 0.00 0.00 62 999.5
20260504213247 60 209 12.0 25.0 0.00 0.00 0.00 60 999.4
20260504212347 61 214 12.0 27.0 0.00 0.00 0.00 59 999.4
20260504211447 61 214 12.0 25.0 0.00 0.00 0.00 60 999.5
20260504210547 61 202 10.0 22.0 0.00 0.00 0.00 59 999.3
20260504205647 61 205 11.0 22.0 0.00 0.00 0.00 59 999.6
20260504204747 61 213 11.0 21.0 0.00 0.00 0.00 60 999.5
20260504203847 62 216 13.0 27.0 0.00 0.00 0.00 58 999.4
20260504202947 62 214 14.0 27.0 0.00 0.00 0.00 57 999.4
20260504202047 62 197 11.0 25.0 0.00 0.00 0.00 55 999.4
20260504201147 62 213 12.0 26.0 0.00 0.00 0.00 55 999.5
20260504200247 63 216 12.0 24.0 0.00 0.00 0.00 55 999.6
20260504195347 62 216 16.0 28.0 0.00 0.00 0.00 54 999.4
20260504194447 63 198 12.0 24.0 0.00 0.00 0.00 53 999.6
20260504192647 63 217 11.0 24.0 0.00 0.00 0.00 52 999.7
20260504191747 63 214 11.0 23.0 0.00 0.00 0.00 52 999.8
20260504190847 63 204 11.0 23.0 0.00 0.00 0.00 53 999.8
20260504185047 64 198 10.0 20.0 0.00 0.00 0.00 51 1000.0
20260504184147 64 220 11.0 21.0 0.00 0.00 0.00 52 1000.1
20260504183247 64 209 10.0 20.0 0.00 0.00 0.00 51 1000.2
20260504182347 63 214 12.0 26.0 0.00 0.00 0.00 52 1000.4
20260504180547 63 215 10.0 22.0 0.00 0.00 0.00 52 1000.5
20260504175647 63 219 10.0 22.0 0.00 0.00 0.00 52 1000.7
20260504174746 63 208 10.0 20.0 0.00 0.00 0.00 52 1000.7
20260504173847 62 219 13.0 23.0 0.00 0.00 0.00 51 1000.7
20260504172946 62 223 15.0 25.0 0.00 0.00 0.00 49 1000.7
20260504172046 62 212 15.0 26.0 0.00 0.00 0.00 47 1000.8
20260504171146 63 214 12.0 28.0 0.00 0.00 0.00 46 1000.8
20260504170246 62 227 15.0 30.0 0.00 0.00 0.00 47 1000.8
20260504150546 62 241 12.0 22.0 0.00 0.00 0.00 42 1002.2
20260504141146 60 226 9.0 20.0 0.00 0.00 0.00 45 1002.5
20260504140246 60 228 11.0 19.0 0.00 0.00 0.00 47 1002.5